STARLINK AW

Last updated on Jan. 16, 2020, 12:02 a.m. UTC

1 44958U 20001AW  20015.58334491  .00029780  00000-0  14085-3 0  9995
2 44958  53.0001 354.7488 0003081 249.6196 180.8386 15.82784615  1359

Satellite is not in orbit.